FENGYUN 1C DEB

Satellite information

Favourite Embed

Satellite Type and Status

DEBRISIN ORBIT

Key statistics

Satellite FENGYUN 1C DEB at a glance.

Uptime

9556

Days in orbit

Revolutions

≈ 14.1

Per day

Orbit

SSO

Sun Synchronous Orbit

Inclination

98.6

Latest

Satellite identification and parameters

Extended collection of information and parameters for FENGYUN 1C DEB.

Object identification

Identified? True

Debris? True

Object name: FENGYUN 1C DEB

International designator: 1999-025CEF

Object number (NORAD): 31732

Object ID (CCSDS): 31732

Country: PEOPLES REPUBLIC OF CHINA (PRC)

Current information (Y/N): Y

RCS size: SMALL

Orbital parameters

Period: 101.981 minutes

Inclination: 98.5915 deg

SMA: 7230.599 km

Apoapsis: 881.51 km

Periapsis: 823.419 km

RAAN: 224.5423 deg

Eccentricy: 0.004017

Argument of periapsis: 356.114 deg

Mean anomaly: 3.9714 deg

Mean motion: 14.12021491 rev/day

Mean motion (dot): 0.00000328 rev/day2

B* drag term: 0.00020056 1/REarth

Two-line elements (TLE)

Creation date: July 2, 2025, 2:08 a.m.

Reference frame: TEME

Reference center: EARTH

Epoch: July 1, 2025, 8:19 p.m. UTC

TLE line 0: 0 FENGYUN 1C DEB

TLE line 1: 1 31732U 99025CEF 25182.84676226 .00000328 00000-0 20056-3 0 9999

TLE line 2: 2 31732 98.5915 224.5423 0040170 356.1140 3.9714 14.12021491620174

Live tracking on map

Real-time ground track for satellite FENGYUN 1C DEB.

In-orbit conjunctions

A list of the most updated potential collisions computed for object FENGYUN 1C DEB.

Target Orbit TCA Probability of collision Miss distance Type
METEOR 1-22 DEB LEO 2024-12-31 20:09:26 0.0009763362 45.0 (m) DEBRIS
METEOR 1-19 LEO 2024-11-18 01:33:31 0.0004045832 72.0 (m) PAYLOAD
NOAA 16 DEB SSO 2024-09-25 21:43:03 0.0001080423 698.0 (m) DEBRIS

Associated space launch

Chinese polar orbiting meteorological satellite

FENGYUN 1C DEB was lifted into orbit during the mission ‘Long March 4B | Feng Yun 1C’, on board a Long March 4B space rocket.

The launch took place on May 10, 1999, 1:33 a.m. from Launch Complex 7.

For more information about the launch, click the button.

Launch to space Long March 4B | Feng Yun 1C
Long March 4B | Feng Yun 1C

Agency: N/A

Status: Launch Successful

Launch date: May 10, 1999, 1:33 a.m. UTC

Rocket: Long March 4B

Launch pad: Launch Complex 7

Location: Taiyuan Satellite Launch Center, People's Republic of China

...

Latest news about this satellite

There are no fresh news available about this satellite. Check back as we update our databases every day.


Newsletter sign-up

Weekly statistics, charts and insights to help you stay on top of the space industry.